| time (UTC) | temp F | wind direction | speed MPH | gust MPH | rain 1hr in | rain 24hr in | rain mn in | humidity % | barometer mb |
| 20260506230504 | 50 | 301 | 2.0 | 3.0 | 0.13 | 0.32 | 0.14 | 90 | 1008.3 |
| 20260506230005 | 50 | 330 | 3.0 | 6.0 | 0.13 | 0.31 | 0.13 | 90 | 1008.3 |
| 20260506224504 | 50 | 316 | 2.0 | 5.0 | 0.13 | 0.29 | 0.11 | 90 | 1008.2 |
| 20260506223005 | 50 | 284 | 2.0 | 6.0 | 0.12 | 0.26 | 0.07 | 89 | 1008.1 |
| 20260506221504 | 50 | 306 | 1.0 | 3.0 | 0.09 | 0.24 | 0.02 | 89 | 1007.9 |
| 20260506221004 | 51 | 277 | 2.0 | 6.0 | 0.09 | 0.24 | 0.02 | 89 | 1007.9 |
| 20260506220005 | 51 | 307 | 2.0 | 3.0 | 0.09 | 0.24 | 0.00 | 89 | 1007.8 |
| 20260506215504 | 51 | 5 | 2.0 | 5.0 | 0.08 | 0.24 | 0.24 | 89 | 1007.7 |
| 20260506215006 | 51 | 304 | 2.0 | 8.0 | 0.07 | 0.24 | 0.23 | 89 | 1007.7 |
| 20260506214505 | 51 | 343 | 1.0 | 5.0 | 0.07 | 0.25 | 0.22 | 89 | 1007.6 |
| 20260506214005 | 51 | 300 | 3.0 | 8.0 | 0.06 | 0.24 | 0.21 | 89 | 1007.7 |
| 20260506213004 | 52 | 299 | 2.0 | 3.0 | 0.05 | 0.23 | 0.20 | 89 | 1007.5 |
| 20260506212504 | 52 | 334 | 2.0 | 3.0 | 0.05 | 0.24 | 0.20 | 89 | 1007.5 |
| 20260506211504 | 52 | 309 | 2.0 | 3.0 | 0.04 | 0.23 | 0.19 | 89 | 1007.4 |
| 20260506211004 | 52 | 260 | 1.0 | 3.0 | 0.03 | 0.22 | 0.18 | 89 | 1007.3 |
| 20260506210504 | 52 | 252 | 0.0 | 2.0 | 0.02 | 0.20 | 0.17 | 89 | 1007.3 |
| 20260506210005 | 52 | 259 | 0.0 | 2.0 | 0.01 | 0.20 | 0.16 | 89 | 1007.2 |
| 20260506205504 | 52 | 259 | 1.0 | 2.0 | 0.01 | 0.20 | 0.16 | 89 | 1007.3 |
| 20260506205003 | 52 | 283 | 1.0 | 3.0 | 0.02 | 0.20 | 0.16 | 89 | 1007.3 |
| 20260506203504 | 53 | 229 | 1.0 | 2.0 | 0.02 | 0.19 | 0.15 | 89 | 1007.2 |
| 20260506203004 | 53 | 230 | 1.0 | 3.0 | 0.03 | 0.19 | 0.15 | 89 | 1007.1 |
| 20260506202504 | 53 | 228 | 0.0 | 2.0 | 0.03 | 0.19 | 0.15 | 89 | 1007.1 |
| 20260506202004 | 53 | 228 | 0.0 | 2.0 | 0.03 | 0.19 | 0.15 | 89 | 1007.1 |
| 20260506201004 | 53 | 228 | 0.0 | 1.0 | 0.03 | 0.19 | 0.15 | 89 | 1007.0 |
| 20260506200504 | 53 | 228 | 0.0 | 3.0 | 0.04 | 0.19 | 0.15 | 89 | 1007.0 |
| 20260506200005 | 53 | 211 | 1.0 | 2.0 | 0.05 | 0.19 | 0.15 | 89 | 1007.0 |
| 20260506195504 | 53 | 211 | 1.0 | 2.0 | 0.05 | 0.19 | 0.15 | 89 | 1006.9 |
| 20260506195004 | 53 | 210 | 1.0 | 2.0 | 0.05 | 0.18 | 0.14 | 88 | 1006.8 |
| 20260506194504 | 53 | 209 | 1.0 | 2.0 | 0.05 | 0.17 | 0.13 | 88 | 1006.8 |
| 20260506194004 | 53 | 210 | 0.0 | 2.0 | 0.06 | 0.17 | 0.13 | 88 | 1006.8 |
| 20260506193504 | 53 | 139 | 1.0 | 2.0 | 0.06 | 0.17 | 0.13 | 88 | 1006.7 |
| 20260506193004 | 53 | 224 | 1.0 | 3.0 | 0.05 | 0.16 | 0.12 | 88 | 1006.6 |
| 20260506192504 | 53 | 226 | 1.0 | 2.0 | 0.05 | 0.16 | 0.12 | 88 | 1006.6 |
| 20260506192004 | 53 | 227 | 1.0 | 3.0 | 0.05 | 0.16 | 0.12 | 88 | 1006.5 |
| 20260506191504 | 53 | 232 | 0.0 | 1.0 | 0.05 | 0.16 | 0.12 | 87 | 1006.4 |
| 20260506191004 | 53 | 233 | 1.0 | 3.0 | 0.05 | 0.16 | 0.12 | 87 | 1006.3 |
| 20260506190504 | 53 | 252 | 2.0 | 5.0 | 0.04 | 0.15 | 0.11 | 87 | 1006.3 |
| 20260506190006 | 53 | 231 | 2.0 | 5.0 | 0.03 | 0.14 | 0.10 | 86 | 1006.3 |
| 20260506185504 | 53 | 222 | 1.0 | 3.0 | 0.03 | 0.14 | 0.10 | 86 | 1006.3 |
| 20260506185004 | 54 | 258 | 0.0 | 2.0 | 0.02 | 0.13 | 0.09 | 85 | 1006.3 |
| 20260506184004 | 55 | 286 | 2.0 | 6.0 | 0.00 | 0.11 | 0.07 | 81 | 1006.1 |
| 20260506183504 | 55 | 212 | 1.0 | 3.0 | 0.00 | 0.11 | 0.07 | 79 | 1006.0 |
| 20260506183005 | 55 | 224 | 3.0 | 6.0 | 0.00 | 0.11 | 0.07 | 79 | 1005.9 |
| 20260506182504 | 56 | 211 | 5.0 | 7.0 | 0.00 | 0.11 | 0.07 | 78 | 1005.8 |
| 20260506182004 | 56 | 214 | 2.0 | 6.0 | 0.00 | 0.11 | 0.07 | 78 | 1005.9 |
| 20260506181504 | 56 | 219 | 3.0 | 7.0 | 0.00 | 0.11 | 0.07 | 77 | 1005.8 |
| 20260506180504 | 56 | 211 | 3.0 | 5.0 | 0.00 | 0.11 | 0.07 | 77 | 1005.7 |
| 20260506180006 | 56 | 203 | 3.0 | 8.0 | 0.00 | 0.11 | 0.07 | 77 | 1005.6 |
| 20260506175504 | 57 | 225 | 3.0 | 7.0 | 0.00 | 0.11 | 0.07 | 76 | 1005.6 |
| 20260506175005 | 57 | 205 | 3.0 | 9.0 | 0.00 | 0.11 | 0.07 | 76 | 1005.5 |
| 20260506174503 | 57 | 218 | 5.0 | 8.0 | 0.00 | 0.11 | 0.07 | 75 | 1005.4 |
| 20260506173504 | 57 | 218 | 5.0 | 8.0 | 0.00 | 0.11 | 0.07 | 75 | 1005.3 |
| 20260506173005 | 57 | 211 | 5.0 | 7.0 | 0.00 | 0.11 | 0.07 | 74 | 1005.3 |
| 20260506172504 | 58 | 200 | 5.0 | 7.0 | 0.00 | 0.11 | 0.07 | 75 | 1005.2 |
| 20260506172004 | 58 | 213 | 6.0 | 8.0 | 0.00 | 0.11 | 0.07 | 74 | 1005.2 |
| 20260506171503 | 58 | 216 | 5.0 | 8.0 | 0.00 | 0.12 | 0.07 | 74 | 1005.1 |
| 20260506171004 | 58 | 208 | 5.0 | 12.0 | 0.00 | 0.12 | 0.07 | 73 | 1005.1 |
| 20260506170504 | 59 | 215 | 6.0 | 12.0 | 0.00 | 0.12 | 0.07 | 72 | 1005.0 |
| 20260506170004 | 59 | 212 | 5.0 | 12.0 | 0.00 | 0.12 | 0.07 | 70 | 1004.9 |
| 20260506165504 | 59 | 199 | 2.0 | 5.0 | 0.00 | 0.12 | 0.07 | 70 | 1004.9 |
| 20260506165004 | 59 | 213 | 2.0 | 3.0 | 0.00 | 0.12 | 0.07 | 69 | 1004.8 |
| 20260506164003 | 59 | 213 | 2.0 | 5.0 | 0.00 | 0.12 | 0.07 | 69 | 1004.9 |
| 20260506163503 | 59 | 212 | 2.0 | 6.0 | 0.00 | 0.13 | 0.07 | 68 | 1005.0 |
| 20260506163004 | 60 | 227 | 3.0 | 6.0 | 0.00 | 0.13 | 0.07 | 69 | 1004.9 |
| 20260506162504 | 60 | 224 | 4.0 | 8.0 | 0.00 | 0.13 | 0.07 | 68 | 1005.0 |
| 20260506162004 | 60 | 223 | 4.0 | 8.0 | 0.00 | 0.14 | 0.07 | 68 | 1005.1 |
| 20260506161504 | 60 | 229 | 3.0 | 9.0 | 0.00 | 0.14 | 0.07 | 67 | 1005.1 |
| 20260506160504 | 60 | 208 | 4.0 | 6.0 | 0.00 | 0.15 | 0.07 | 66 | 1005.1 |
| 20260506160004 | 60 | 205 | 3.0 | 7.0 | 0.00 | 0.16 | 0.07 | 67 | 1005.2 |
| 20260506155004 | 61 | 220 | 4.0 | 10.0 | 0.00 | 0.17 | 0.07 | 65 | 1005.1 |
| 20260506154504 | 61 | 214 | 3.0 | 6.0 | 0.00 | 0.18 | 0.07 | 64 | 1005.1 |
| 20260506153004 | 61 | 226 | 3.0 | 6.0 | 0.00 | 0.20 | 0.07 | 64 | 1005.1 |
| 20260506152504 | 61 | 221 | 5.0 | 7.0 | 0.00 | 0.20 | 0.07 | 65 | 1005.0 |
| 20260506152004 | 61 | 226 | 4.0 | 10.0 | 0.00 | 0.21 | 0.07 | 64 | 1005.0 |
| 20260506151003 | 62 | 209 | 5.0 | 7.0 | 0.00 | 0.22 | 0.07 | 64 | 1005.0 |
| 20260506150504 | 62 | 221 | 5.0 | 9.0 | 0.00 | 0.23 | 0.07 | 64 | 1004.8 |
| 20260506150005 | 62 | 247 | 2.0 | 6.0 | 0.00 | 0.24 | 0.07 | 64 | 1004.8 |
| 20260506145503 | 62 | 273 | 1.0 | 6.0 | 0.00 | 0.25 | 0.07 | 63 | 1004.7 |
| 20260506144504 | 62 | 185 | 5.0 | 8.0 | 0.00 | 0.28 | 0.07 | 62 | 1004.7 |
| 20260506144004 | 62 | 253 | 4.0 | 9.0 | 0.00 | 0.28 | 0.07 | 60 | 1004.8 |
| 20260506143503 | 62 | 222 | 6.0 | 9.0 | 0.00 | 0.30 | 0.07 | 62 | 1004.7 |
| 20260506143004 | 63 | 226 | 5.0 | 9.0 | 0.00 | 0.31 | 0.07 | 61 | 1004.7 |
| 20260506142504 | 63 | 226 | 3.0 | 9.0 | 0.00 | 0.31 | 0.07 | 61 | 1004.7 |
| 20260506142004 | 63 | 214 | 1.0 | 6.0 | 0.00 | 0.31 | 0.07 | 64 | 1004.7 |
| 20260506141503 | 64 | 214 | 4.0 | 10.0 | 0.00 | 0.31 | 0.07 | 62 | 1004.7 |
| 20260506141004 | 64 | 182 | 3.0 | 9.0 | 0.00 | 0.31 | 0.07 | 60 | 1004.7 |
| 20260506140504 | 65 | 5 | 2.0 | 9.0 | 0.00 | 0.31 | 0.07 | 60 | 1004.6 |
| 20260506140004 | 64 | 206 | 5.0 | 7.0 | 0.00 | 0.31 | 0.07 | 61 | 1004.7 |
| 20260506135504 | 63 | 184 | 4.0 | 12.0 | 0.00 | 0.31 | 0.07 | 62 | 1004.7 |
| 20260506134505 | 64 | 204 | 5.0 | 8.0 | 0.00 | 0.31 | 0.07 | 62 | 1004.8 |
| 20260506133004 | 63 | 303 | 2.0 | 5.0 | 0.00 | 0.31 | 0.07 | 65 | 1004.9 |
| 20260506132504 | 63 | 214 | 5.0 | 8.0 | 0.00 | 0.31 | 0.07 | 64 | 1004.9 |
| 20260506132005 | 63 | 219 | 5.0 | 10.0 | 0.00 | 0.31 | 0.07 | 62 | 1005.0 |
| 20260506131504 | 63 | 255 | 4.0 | 10.0 | 0.00 | 0.31 | 0.07 | 63 | 1004.9 |
| 20260506131004 | 63 | 171 | 3.0 | 8.0 | 0.00 | 0.31 | 0.07 | 64 | 1004.8 |
| 20260506130503 | 63 | 205 | 3.0 | 7.0 | 0.00 | 0.31 | 0.07 | 64 | 1004.8 |
| 20260506125006 | 64 | 344 | 1.0 | 5.0 | 0.00 | 0.31 | 0.07 | 65 | 1004.8 |
| 20260506124506 | 64 | 233 | 3.0 | 7.0 | 0.00 | 0.31 | 0.07 | 62 | 1004.8 |
| 20260506124005 | 64 | 357 | 2.0 | 12.0 | 0.00 | 0.31 | 0.07 | 64 | 1004.7 |
| 20260506123506 | 63 | 310 | 2.0 | 6.0 | 0.00 | 0.31 | 0.07 | 63 | 1004.7 |
| 20260506122506 | 63 | 209 | 5.0 | 10.0 | 0.00 | 0.31 | 0.07 | 65 | 1004.8 |
| 20260506122006 | 62 | 198 | 6.0 | 9.0 | 0.00 | 0.31 | 0.07 | 66 | 1004.9 |
| 20260506121506 | 62 | 233 | 5.0 | 12.0 | 0.00 | 0.31 | 0.07 | 65 | 1004.9 |
| 20260506121006 | 63 | 207 | 3.0 | 9.0 | 0.00 | 0.31 | 0.07 | 65 | 1004.9 |
| 20260506120506 | 63 | 210 | 3.0 | 8.0 | 0.00 | 0.31 | 0.07 | 64 | 1005.0 |
| 20260506115006 | 63 | 327 | 2.0 | 9.0 | 0.00 | 0.31 | 0.07 | 68 | 1005.0 |
| 20260506114505 | 63 | 187 | 3.0 | 9.0 | 0.00 | 0.31 | 0.07 | 64 | 1005.0 |
| 20260506114006 | 63 | 194 | 1.0 | 6.0 | 0.00 | 0.31 | 0.07 | 67 | 1005.0 |
| 20260506113505 | 62 | 329 | 6.0 | 12.0 | 0.00 | 0.31 | 0.07 | 67 | 1005.0 |
| 20260506113005 | 62 | 322 | 3.0 | 12.0 | 0.00 | 0.31 | 0.07 | 68 | 1005.1 |
| 20260506112505 | 62 | 74 | 3.0 | 9.0 | 0.00 | 0.31 | 0.07 | 68 | 1005.0 |
| 20260506112005 | 61 | 198 | 3.0 | 10.0 | 0.00 | 0.31 | 0.07 | 69 | 1005.1 |
| 20260506111506 | 62 | 355 | 2.0 | 5.0 | 0.00 | 0.31 | 0.07 | 68 | 1005.2 |
| 20260506111006 | 63 | 230 | 5.0 | 14.0 | 0.00 | 0.31 | 0.07 | 65 | 1005.2 |
| 20260506110006 | 62 | 201 | 6.0 | 12.0 | 0.00 | 0.31 | 0.07 | 68 | 1005.3 |
| 20260506105506 | 61 | 217 | 6.0 | 10.0 | 0.00 | 0.31 | 0.07 | 69 | 1005.3 |
| 20260506105006 | 61 | 201 | 3.0 | 6.0 | 0.00 | 0.31 | 0.07 | 69 | 1005.2 |
| 20260506104006 | 61 | 200 | 5.0 | 12.0 | 0.00 | 0.31 | 0.07 | 68 | 1005.2 |
| 20260506103506 | 63 | 220 | 3.0 | 6.0 | 0.00 | 0.31 | 0.07 | 67 | 1005.3 |
| 20260506103006 | 61 | 202 | 5.0 | 9.0 | 0.00 | 0.31 | 0.07 | 68 | 1005.2 |
| 20260506102506 | 61 | 213 | 3.0 | 10.0 | 0.00 | 0.31 | 0.07 | 68 | 1005.2 |
| 20260506102005 | 60 | 225 | 2.0 | 5.0 | 0.00 | 0.31 | 0.07 | 68 | 1005.3 |
| 20260506101506 | 61 | 218 | 5.0 | 10.0 | 0.00 | 0.31 | 0.07 | 70 | 1005.4 |
| 20260506101006 | 61 | 228 | 4.0 | 10.0 | 0.00 | 0.31 | 0.07 | 69 | 1005.4 |
| 20260506100505 | 61 | 197 | 6.0 | 9.0 | 0.00 | 0.31 | 0.07 | 69 | 1005.2 |
| 20260506100006 | 62 | 204 | 7.0 | 13.0 | 0.00 | 0.31 | 0.07 | 66 | 1005.2 |
| 20260506095506 | 62 | 238 | 5.0 | 10.0 | 0.00 | 0.31 | 0.07 | 70 | 1005.3 |
| 20260506095005 | 61 | 214 | 7.0 | 10.0 | 0.00 | 0.31 | 0.07 | 71 | 1005.3 |
| 20260506094506 | 61 | 200 | 6.0 | 12.0 | 0.00 | 0.31 | 0.07 | 71 | 1005.3 |
| 20260506094006 | 60 | 216 | 2.0 | 8.0 | 0.00 | 0.31 | 0.07 | 71 | 1005.4 |
| 20260506093506 | 60 | 217 | 1.0 | 3.0 | 0.00 | 0.31 | 0.07 | 75 | 1005.4 |
| 20260506093005 | 59 | 235 | 2.0 | 7.0 | 0.00 | 0.31 | 0.07 | 72 | 1005.5 |
| 20260506092506 | 60 | 221 | 3.0 | 6.0 | 0.00 | 0.31 | 0.07 | 74 | 1005.4 |
| 20260506092005 | 59 | 193 | 1.0 | 6.0 | 0.00 | 0.31 | 0.07 | 75 | 1005.5 |
| 20260506091505 | 60 | 220 | 3.0 | 7.0 | 0.00 | 0.31 | 0.07 | 73 | 1005.5 |
| 20260506091005 | 60 | 251 | 6.0 | 10.0 | 0.00 | 0.31 | 0.07 | 73 | 1005.5 |
| 20260506090506 | 60 | 219 | 3.0 | 12.0 | 0.00 | 0.31 | 0.07 | 73 | 1005.5 |
| 20260506090007 | 60 | 233 | 5.0 | 10.0 | 0.00 | 0.31 | 0.07 | 71 | 1005.5 |
| 20260506085506 | 60 | 222 | 5.0 | 14.0 | 0.00 | 0.31 | 0.07 | 72 | 1005.5 |
| 20260506085005 | 60 | 225 | 4.0 | 9.0 | 0.00 | 0.31 | 0.07 | 73 | 1005.5 |
| 20260506084505 | 59 | 207 | 5.0 | 8.0 | 0.00 | 0.31 | 0.07 | 74 | 1005.4 |
| 20260506084006 | 59 | 229 | 3.0 | 8.0 | 0.00 | 0.31 | 0.07 | 78 | 1005.5 |
| 20260506083509 | 59 | 204 | 3.0 | 9.0 | 0.00 | 0.31 | 0.07 | 77 | 1005.4 |
| 20260506083005 | 58 | 280 | 2.0 | 5.0 | 0.00 | 0.31 | 0.07 | 78 | 1005.3 |
| 20260506082506 | 59 | 254 | 4.0 | 8.0 | 0.00 | 0.31 | 0.07 | 78 | 1005.2 |
| 20260506082005 | 59 | 197 | 1.0 | 3.0 | 0.00 | 0.31 | 0.07 | 78 | 1005.1 |
| 20260506081506 | 59 | 336 | 2.0 | 7.0 | 0.00 | 0.31 | 0.07 | 75 | 1005.1 |
| 20260506081006 | 59 | 244 | 3.0 | 6.0 | 0.00 | 0.31 | 0.07 | 78 | 1005.0 |
| 20260506080506 | 59 | 355 | 1.0 | 8.0 | 0.00 | 0.31 | 0.07 | 77 | 1005.0 |
| 20260506073505 | 58 | 232 | 6.0 | 7.0 | 0.00 | 0.31 | 0.07 | 79 | 1005.1 |
| 20260506073006 | 58 | 200 | 3.0 | 7.0 | 0.00 | 0.31 | 0.07 | 83 | 1005.1 |
| 20260506072505 | 57 | 221 | 5.0 | 10.0 | 0.00 | 0.31 | 0.07 | 81 | 1005.2 |
| 20260506071506 | 56 | 205 | 3.0 | 7.0 | 0.00 | 0.31 | 0.07 | 82 | 1005.2 |
| 20260506071005 | 57 | 226 | 3.0 | 6.0 | 0.00 | 0.31 | 0.07 | 83 | 1005.2 |
| 20260506070505 | 57 | 211 | 4.0 | 7.0 | 0.00 | 0.31 | 0.07 | 83 | 1005.3 |
| 20260506062005 | 55 | 224 | 2.0 | 3.0 | 0.00 | 0.31 | 0.07 | 86 | 1005.2 |
| 20260506061506 | 55 | 306 | 2.0 | 3.0 | 0.00 | 0.31 | 0.07 | 86 | 1005.2 |
| 20260506061006 | 54 | 112 | 1.0 | 2.0 | 0.00 | 0.31 | 0.07 | 87 | 1005.3 |
| 20260506050505 | 52 | 211 | 2.0 | 3.0 | 0.00 | 0.31 | 0.07 | 90 | 1005.3 |
| 20260506045005 | 52 | 225 | 0.0 | 3.0 | 0.00 | 0.31 | 0.07 | 90 | 1005.2 |
| 20260506044505 | 52 | 221 | 1.0 | 3.0 | 0.00 | 0.31 | 0.07 | 91 | 1005.1 |
| 20260506044005 | 51 | 219 | 1.0 | 3.0 | 0.00 | 0.31 | 0.07 | 90 | 1005.2 |
| 20260506043505 | 51 | 220 | 2.0 | 3.0 | 0.00 | 0.31 | 0.07 | 90 | 1005.2 |
| 20260506043006 | 51 | 205 | 1.0 | 2.0 | 0.00 | 0.31 | 0.07 | 90 | 1005.2 |
| 20260506042505 | 51 | 209 | 2.0 | 3.0 | 0.00 | 0.31 | 0.07 | 90 | 1005.3 |
| 20260506042005 | 51 | 209 | 1.0 | 3.0 | 0.00 | 0.31 | 0.07 | 90 | 1005.3 |
| 20260506041505 | 51 | 269 | 0.0 | 2.0 | 0.00 | 0.31 | 0.07 | 90 | 1005.2 |
| 20260506041005 | 52 | 204 | 1.0 | 5.0 | 0.00 | 0.31 | 0.07 | 90 | 1005.3 |
| 20260506040505 | 52 | 219 | 2.0 | 7.0 | 0.00 | 0.31 | 0.07 | 90 | 1005.3 |
| 20260506040006 | 51 | 217 | 2.0 | 5.0 | 0.00 | 0.31 | 0.07 | 90 | 1005.3 |
| 20260506035505 | 52 | 255 | 2.0 | 7.0 | 0.00 | 0.31 | 0.07 | 90 | 1005.3 |
| 20260506035005 | 52 | 216 | 1.0 | 2.0 | 0.00 | 0.31 | 0.07 | 90 | 1005.3 |
| 20260506034505 | 52 | 217 | 1.0 | 3.0 | 0.00 | 0.31 | 0.07 | 90 | 1005.3 |
| 20260506034006 | 52 | 223 | 1.0 | 3.0 | 0.00 | 0.31 | 0.07 | 90 | 1005.3 |
| 20260506033505 | 52 | 239 | 1.0 | 3.0 | 0.00 | 0.31 | 0.07 | 90 | 1005.4 |
| 20260506033006 | 52 | 229 | 3.0 | 7.0 | 0.00 | 0.31 | 0.07 | 91 | 1005.5 |
| 20260506032006 | 52 | 209 | 2.0 | 3.0 | 0.00 | 0.31 | 0.07 | 91 | 1005.5 |
| 20260506031505 | 52 | 226 | 2.0 | 5.0 | 0.00 | 0.31 | 0.07 | 91 | 1005.5 |
| 20260506031005 | 51 | 199 | 1.0 | 3.0 | 0.00 | 0.31 | 0.07 | 91 | 1005.6 |
| 20260506030506 | 51 | 199 | 2.0 | 3.0 | 0.00 | 0.31 | 0.07 | 91 | 1005.6 |
| 20260506030006 | 51 | 204 | 2.0 | 3.0 | 0.00 | 0.31 | 0.07 | 91 | 1005.5 |
| 20260506025506 | 51 | 226 | 1.0 | 3.0 | 0.00 | 0.31 | 0.07 | 91 | 1005.7 |
| 20260506025006 | 51 | 207 | 0.0 | 2.0 | 0.00 | 0.31 | 0.07 | 90 | 1005.6 |
| 20260506024506 | 51 | 207 | 1.0 | 3.0 | 0.00 | 0.31 | 0.07 | 91 | 1005.7 |
| 20260506024005 | 51 | 209 | 1.0 | 3.0 | 0.00 | 0.31 | 0.07 | 90 | 1005.7 |
| 20260506023505 | 51 | 204 | 1.0 | 3.0 | 0.00 | 0.31 | 0.07 | 90 | 1005.7 |
| 20260506023007 | 51 | 217 | 2.0 | 3.0 | 0.00 | 0.31 | 0.07 | 90 | 1005.7 |
| 20260506022505 | 51 | 218 | 1.0 | 3.0 | 0.00 | 0.31 | 0.07 | 90 | 1005.6 |
| 20260506022005 | 51 | 217 | 1.0 | 3.0 | 0.00 | 0.31 | 0.07 | 90 | 1005.7 |
| 20260506021505 | 51 | 224 | 2.0 | 5.0 | 0.00 | 0.31 | 0.07 | 90 | 1005.7 |
| 20260506021006 | 51 | 203 | 3.0 | 3.0 | 0.00 | 0.31 | 0.07 | 90 | 1005.7 |
| 20260506020505 | 51 | 223 | 1.0 | 3.0 | 0.00 | 0.31 | 0.07 | 90 | 1005.7 |
| 20260506020006 | 51 | 216 | 2.0 | 3.0 | 0.00 | 0.31 | 0.07 | 90 | 1005.7 |
| 20260506015505 | 51 | 205 | 0.0 | 2.0 | 0.00 | 0.31 | 0.07 | 90 | 1005.7 |
| 20260506015006 | 51 | 205 | 1.0 | 2.0 | 0.00 | 0.31 | 0.07 | 90 | 1005.7 |
| 20260506014005 | 51 | 219 | 0.0 | 2.0 | 0.00 | 0.31 | 0.07 | 90 | 1005.8 |
| 20260506012505 | 52 | 226 | 1.0 | 3.0 | 0.00 | 0.31 | 0.07 | 90 | 1005.9 |
| 20260506012005 | 52 | 223 | 2.0 | 5.0 | 0.00 | 0.31 | 0.07 | 90 | 1005.9 |
| 20260506011505 | 52 | 251 | 2.0 | 7.0 | 0.00 | 0.31 | 0.07 | 90 | 1006.0 |
| 20260506011006 | 52 | 201 | 2.0 | 3.0 | 0.00 | 0.31 | 0.07 | 90 | 1006.0 |
| 20260506010005 | 52 | 207 | 2.0 | 3.0 | 0.00 | 0.31 | 0.07 | 90 | 1006.0 |
| 20260506005505 | 52 | 226 | 1.0 | 3.0 | 0.00 | 0.31 | 0.07 | 90 | 1006.0 |
| 20260506005005 | 53 | 215 | 2.0 | 6.0 | 0.00 | 0.31 | 0.07 | 90 | 1006.0 |
| 20260506004507 | 53 | 223 | 1.0 | 3.0 | 0.00 | 0.31 | 0.07 | 90 | 1006.0 |
| 20260506004004 | 53 | 193 | 2.0 | 3.0 | 0.01 | 0.31 | 0.07 | 90 | 1006.1 |
| 20260506003505 | 53 | 217 | 1.0 | 3.0 | 0.01 | 0.31 | 0.07 | 90 | 1006.2 |
| 20260506003005 | 53 | 210 | 2.0 | 5.0 | 0.01 | 0.31 | 0.07 | 90 | 1006.2 |
| 20260506002505 | 53 | 214 | 2.0 | 3.0 | 0.01 | 0.31 | 0.07 | 91 | 1006.2 |
| 20260506001505 | 53 | 205 | 1.0 | 2.0 | 0.01 | 0.31 | 0.07 | 91 | 1006.1 |
| 20260506001005 | 53 | 205 | 1.0 | 3.0 | 0.01 | 0.31 | 0.07 | 90 | 1006.3 |
| 20260506000006 | 53 | 313 | 1.0 | 2.0 | 0.01 | 0.31 | 0.07 | 90 | 1006.4 |
| 20260505235508 | 53 | 216 | 2.0 | 5.0 | 0.01 | 0.31 | 0.07 | 90 | 1006.3 |
| 20260505234505 | 53 | 257 | 2.0 | 3.0 | 0.01 | 0.31 | 0.07 | 91 | 1006.3 |
| 20260505234004 | 53 | 204 | 3.0 | 5.0 | 0.00 | 0.31 | 0.06 | 91 | 1006.5 |
| 20260505233505 | 53 | 223 | 3.0 | 6.0 | 0.00 | 0.31 | 0.06 | 91 | 1006.5 |
| 20260505232504 | 53 | 216 | 2.0 | 3.0 | 0.02 | 0.31 | 0.06 | 91 | 1006.5 |
| 20260505232005 | 53 | 209 | 2.0 | 3.0 | 0.02 | 0.31 | 0.06 | 91 | 1006.5 |
| 20260505231505 | 54 | 197 | 0.0 | 3.0 | 0.03 | 0.31 | 0.06 | 91 | 1006.5 |
| 20260505231006 | 54 | 205 | 1.0 | 3.0 | 0.04 | 0.31 | 0.06 | 91 | 1006.5 |